Regional Weather Roundup
Issued by NWS Sterling, VA

Home | Current Version | Previous Version | Graphics & Text | Print | Product List | Glossary On
Versions: 1 2 3 4 5 6 7 8 9 10 11 12 13 14 15 16 17 18 19 20 21 22 23 24 25 26 27
000
ASUS41 KLWX 271810
RWRLWX

REGIONAL WEATHER ROUNDUP
NATIONAL WEATHER SERVICE BALTIMORE MD/WASHINGTON DC
100 PM EST MON FEB 27 2017

Note: "FAIR" indicates few or no clouds below 12,000 feet
with no significant weather and/or obstructions to visibility.
 TC=TEMPERATURE CELSIUS

 * =Non NWS site. Station does not report precipitation (e.g. rain,
    snow, etc.), thunder, or fog.

DCZ001-MDZ009-015-VAZ040>042-051-053>054-271900-
WASHINGTON METRO

CITY           SKY/WX    TMP DP  RH WIND       PRES   REMARKS
WASHINGTON NAT CLOUDY    52  23  32 S12       30.41F
DULLES         CLOUDY    51  20  29 S10       30.38F
ANDREWS AFB    CLOUDY    52  22  30 S12       30.39F
FT BELVOIR     CLOUDY    52  25  34 S9        30.39F
QUANTICO       CLOUDY    50  34  54 S3        30.41F
COLLEGE PARK*  CLOUDY    52  19  28 SW8       30.39F
LEESBURG*      CLOUDY    54  27  35 MISG      30.38F
MANASSAS*      CLOUDY    55  24  30 S12G17    30.38F
GAITHERSBURG*  CLOUDY    54  19  26 SW5       30.41F

$$

MDZ006>007-011-014-271900-
BALTIMORE METRO

CITY           SKY/WX    TMP DP  RH WIND       PRES   REMARKS
BWI AIRPORT    CLOUDY    55  19  24 S9        30.38F
MD SCIENCE CTR   N/A     56  27  32 MISG      30.42F
MARTIN STATE   PTSUNNY   52  41  66 SE7       30.42F
ANNAPOLIS      CLOUDY    49  38  65 SE13      30.41F
FORT MEADE*    PTSUNNY   54  23  30 S12       30.41F

$$

MDZ012-015-019>023-271900-
MARYLAND EASTERN SHORE

CITY           SKY/WX    TMP DP  RH WIND       PRES   REMARKS
OCEAN CITY     MOSUNNY   53  34  48 SW13G23   30.44F
SALISBURY      MOSUNNY   56  32  40 S15       30.42F
BAY BRIDGE AP* CLOUDY    52  30  43 S9        30.41F
CAMBRIDGE*     PTSUNNY   52  37  58 S8G15     30.43F
EASTON*        PTSUNNY   55  28  35 SW12      30.46F

$$

MDZ017>025-271900-
SOUTHERN MARYLAND

CITY           SKY/WX    TMP DP  RH WIND       PRES   REMARKS
PATUXENT RIVER CLOUDY    52  33  48 SW7       30.42F
ST INIGOES     CLOUDY    53  35  50 SW3       30.42F
LEONARDTOWN*   CLOUDY    52  30  43 SW7       30.44F

$$

MDZ003>005-271900-
NORTH CENTRAL MARYLAND

CITY           SKY/WX    TMP DP  RH WIND       PRES   REMARKS
FREDERICK*     CLOUDY    52  27  37 SW12      30.41F
HAGERSTOWN APT CLOUDY    50  22  33 S10       30.35F
WESTMINSTER*   CLOUDY    54  23  30 SW13      30.36F

$$

MDZ501>502-271900-
WESTERN MARYLAND

CITY           SKY/WX    TMP DP  RH WIND       PRES   REMARKS
OAKLAND*       CLOUDY    37  32  81 SW9       30.27F
CUMBERLAND*    CLOUDY    46  23  39 CALM      30.36F

$$

VAZ025>031-271900-
SHENANDOAH VALLEY

CITY           SKY/WX    TMP DP  RH WIND       PRES   REMARKS
WINCHESTER*    CLOUDY    50  19  29 SW6       30.34F
FRONT ROYAL*   CLOUDY    50  23  34 CALM      30.33F
LURAY*         PTSUNNY   54  27  35 SW8       30.34F
NEW MARKET*    CLOUDY    52  19  27 SW9       30.34F
STAUNTON*      MOSUNNY   51  20  29 S6        30.36F
WAYNESBORO*    CLOUDY    51  15  24 S9G18     30.34F

$$

WVZ021-048>050-054>055-271900-
EASTERN WEST VIRGINIA PANHANDLE

CITY           SKY/WX    TMP DP  RH WIND       PRES   REMARKS
MARTINSBURG    CLOUDY    55  20  25 S9        30.34F
PETERSBURG*    CLOUDY    53  34  48 CALM      30.32F

$$

VAZ036>039-050-271900-
CENTRAL FOOTHILLS

CITY           SKY/WX    TMP DP  RH WIND       PRES   REMARKS
CHARLOTTESVILL CLOUDY    54  20  26 SW12G20   30.36F
CULPEPER*      CLOUDY    54  23  29 S7        30.37F
ORANGE*        PTSUNNY   54  19  26 S9G16     30.37F
GORDONSVILLE*  CLOUDY    53  22  29 SW9       30.37F
WARRENTON*     CLOUDY    55  13  19 S9        30.36F

$$

VAZ055>057-271900-
NORTH AND CENTRAL PIEDMONT

CITY           SKY/WX    TMP DP  RH WIND       PRES   REMARKS
FREDERICKSBRG* CLOUDY    56  26  31 S9        30.39F
STAFFORD*      CLOUDY    56  22  26 S5        30.43F

$$

NCZ024-NYZ072-PAZ021-071-VAZ022-071-271900-
OTHER REGIONAL OBSERVATIONS

CITY           SKY/WX    TMP DP  RH WIND       PRES   REMARKS
NEW YORK CITY  MOSUNNY   51  21  30 SW9G17    30.40F
PHILADELPHIA   PTSUNNY   53  28  38 SW13      30.40F
PITTSBURGH     CLOUDY    46  29  51 SW12      30.28F
ROANOKE        CLOUDY    53  23  31 E10       30.36F
RICHMOND       CLOUDY    59  23  25 S12       30.40F
RALEIGH        MOSUNNY   64  20  18 S13       30.40F

$$

ANZ530>537-271900-
MARINE OBSERVATIONS

STATION/POSITION TIME  TEMP    WIND        PRES
                       AIR SEA DIR/SP/G
                 (UTC) (F)     (DEG/KT/KT) (MB)
THOMAS PT LIGHT  1800   46 45  160/ 12/ 13   N/A
BALT KEY BRIDGE  1742   46     110/  9/ 10 1029.6F
COVE POINT       1742   45     180/ 13/ 15 1030.9F
LEWISETTA        1742   49 48   70/  6/  7 1029.7F
SOLOMONS ISLAND  1742   51 45  190/  7/  9   N/A
PINEY POINT      1748          110/  3/  3   N/A

$$





USA.gov is the U.S. government's official web portal to all federal, state and local government web resources and services.